Pleasantville, NJ

5:31 PM EST on December 08, 2016 (GMT -0500)
Atlantic City International

Weather History for KACY - September, 2013

Change the Weather History Date:

Tuesday, September 17, 2013

  Actual Average Record
Temperature  
Mean Temperature 53 °F 67 °F  
Max Temperature 65 °F 77 °F 93 °F (1991)
Min Temperature 41 °F 57 °F 40 °F (1986)
Degree Days  
Heating Degree Days 12 2  
Month to date heating degree days 34 17  
Since 1 July heating degree days 34 20  
Cooling Degree Days 0 4  
Month to date cooling degree days 96 94  
Year to date cooling degree days 1052 1003  
Growing Degree Days 5 (Base 50)    
Moisture  
Dew Point 43 °F    
Average Humidity 65    
Maximum Humidity 89    
Minimum Humidity 40    
Precipitation  
Precipitation 0.00 in 0.11 in 2.22 in (1876)
Month to date precipitation 0.71 1.67  
Year to date precipitation 32.13 29.89  
Snow  
Snow 0.00 in 0.00 in 0.00 in (1903)
Month to date snowfall 0.0 0.0  
Since 1 July snowfall 0.0 0.0  
Since 1 September snowfall 0.0 0.0  
Snow Depth 0.00 in    
Sea Level Pressure  
Sea Level Pressure 30.35 in    
Wind  
Wind Speed 10 mph (NE)    
Max Wind Speed 17 mph    
Max Gust Speed 25 mph    
Visibility 10 miles    
Events      
T = Trace of Precipitation, MM = Missing Value Source: NWS Daily Summary

Daily Weather History Graph

Daily Weather History Graph

Search for Another Location

Airport or City:

Trip Planner

Search our weather history database for the weather conditions in past years. The results will help you decide how hot, cold, wet, or windy it might be!

Date:

Astronomy

Sep. 17, 2013 Rise Set
Actual Time 6:41 AM EDT 7:03 PM EDT
Civil Twilight 6:14 AM EDT 7:30 PM EDT
Nautical Twilight 5:42 AM EDT 8:01 PM EDT
Astronomical Twilight 5:10 AM EDT 8:33 PM EDT
Moon 5:48 PM EDT (9/17) 4:33 AM EDT (9/17)
Length of Visible Light 13h 15m
Length of Day
12h 21m
Waxing Gibbous, 96% of the Moon is Illuminated
Sep 17
Waxing Gibbous
Sep 19
Full
Sep 26
Last Quarter
Oct 4
New
Oct 11
First Quarter

Hourly Weather History & Observations

Time (EDT) Temp. Dew Point Humidity Pressure Visibility Wind Dir Wind Speed Gust Speed Precip Events Conditions
12:54 AM 55.9 °F 50.0 °F 80% 30.24 in 10.0 mi North - - N/A   Clear
1:54 AM 54.0 °F 48.9 °F 83% 30.25 in 10.0 mi North 11.5 mph - N/A   Clear
2:54 AM 54.0 °F 48.9 °F 83% 30.26 in 10.0 mi North 10.4 mph - N/A   Mostly Cloudy
3:54 AM 54.0 °F 48.0 °F 80% 30.28 in 10.0 mi North 10.4 mph - N/A   Scattered Clouds
4:54 AM 53.1 °F 44.1 °F 71% 30.30 in 10.0 mi North 13.8 mph - N/A   Scattered Clouds
5:54 AM 50.0 °F 42.1 °F 74% 30.32 in 10.0 mi North 11.5 mph - N/A   Clear
6:54 AM 48.0 °F 39.9 °F 74% 30.35 in 10.0 mi North 8.1 mph - N/A   Clear
7:54 AM 50.0 °F 39.9 °F 68% 30.37 in 10.0 mi North 12.7 mph - N/A   Clear
8:54 AM 54.0 °F 39.9 °F 59% 30.39 in 10.0 mi North 16.1 mph 23.0 mph N/A   Clear
9:54 AM 57.0 °F 42.1 °F 57% 30.40 in 10.0 mi NNE 16.1 mph 21.9 mph N/A   Clear
10:54 AM 60.1 °F 43.0 °F 53% 30.41 in 10.0 mi NE 13.8 mph 21.9 mph N/A   Scattered Clouds
11:54 AM 63.0 °F 43.0 °F 48% 30.41 in 10.0 mi NNE 12.7 mph 20.7 mph N/A   Clear
12:54 PM 64.0 °F 39.9 °F 41% 30.41 in 10.0 mi NNE 10.4 mph - N/A   Clear
1:54 PM 64.0 °F 39.9 °F 41% 30.40 in 10.0 mi NE 15.0 mph 20.7 mph N/A   Clear
2:54 PM 64.0 °F 39.0 °F 40% 30.38 in 10.0 mi ENE 10.4 mph 17.3 mph N/A   Clear
3:54 PM 63.0 °F 39.9 °F 43% 30.37 in 10.0 mi ENE 13.8 mph 20.7 mph N/A   Clear
4:54 PM 62.1 °F 39.0 °F 43% 30.36 in 10.0 mi East 13.8 mph - N/A   Clear
5:54 PM 59.0 °F 41.0 °F 51% 30.37 in 10.0 mi ENE 12.7 mph - N/A   Clear
6:54 PM 55.9 °F 43.0 °F 62% 30.36 in 10.0 mi ENE 8.1 mph - N/A   Clear
7:54 PM 50.0 °F 43.0 °F 77% 30.37 in 10.0 mi East 3.5 mph - N/A   Clear
8:54 PM 48.9 °F 42.1 °F 77% 30.37 in 10.0 mi ENE 3.5 mph - N/A   Clear
9:54 PM 46.9 °F 43.0 °F 86% 30.37 in 10.0 mi Calm Calm - N/A   Clear
10:54 PM 48.0 °F 42.1 °F 80% 30.37 in 10.0 mi Calm Calm - N/A   Clear
11:54 PM 45.0 °F 41.0 °F 86% 30.37 in 10.0 mi Calm Calm - N/A   Clear